Temperature
25 23 23 23 24 24 24 24 23 24 24 23 22 21 21 21 21 20 20 20 20 20 21 20 20 20 20 20 19 19 19 19 18 18 18 18 18 17 17 17 17 17 17 17
23 24 25 25 25 24 24 24 23 23 24 23 22 21 21 21 21 20 20 20 20 20 20 20 20 20 20 20 19 19 19 19 18 18 18 18 17 17 17 17 17 17 17 17
25 25 26 26 25 25 24 23 23 23 23 22 22 22 21 21 21 21 21 21 20 21 21 20 20 20 20 20 20 19 19 19 18 18 18 18 17 17 17 17 17 17 17 16
25 25 26 26 25 25 24 25 24 23 22 21 22 21 21 21 20 20 20 20 20 21 21 21 20 20 20 20 20 19 19 19 18 18 18 17 17 17 17 17 17 16 16 16
25 26 26 26 26 26 24 24 24 22 21 21 21 21 21 20 20 20 20 20 21 21 21 21 21 20 20 20 20 19 19 19 18 18 18 17 17 17 17 17 17 16 16 16
25 26 26 26 26 25 24 23 22 20 20 21 21 21 21 20 21 21 21 21 21 21 21 21 21 20 20 20 20 19 19 19 18 18 18 17 17 17 17 17 17 16 16 16
25 25 26 26 25 25 24 22 21 22 20 20 20 21 20 21 21 21 21 21 22 22 21 21 21 21 20 20 20 19 19 19 18 18 18 17 17 17 17 17 17 16 16 16
24 24 25 25 25 24 23 22 21 22 21 20 20 20 21 22 22 22 22 22 22 22 22 21 21 21 21 20 20 19 19 19 18 18 18 17 17 17 17 17 17 16 16 16
23 24 25 26 25 24 23 21 21 20 20 20 20 20 21 21 21 21 21 22 22 22 22 22 22 21 21 20 20 20 19 19 18 18 18 17 17 17 17 17 16 16 16 16
23 24 25 25 25 24 23 20 19 19 20 21 22 21 21 22 21 20 20 21 22 22 22 22 22 21 21 21 20 20 19 19 19 18 18 17 17 17 17 17 16 16 16 16
23 24 24 25 25 25 23 21 19 17 19 20 21 21 22 21 21 20 20 21 22 22 22 22 22 21 21 21 20 20 19 19 18 18 18 17 17 17 17 16 16 16 16 16
21 21 22 23 24 24 24 22 19 21 20 18 19 21 22 20 20 20 21 21 22 22 22 22 22 21 21 21 20 20 19 19 18 18 18 17 17 17 17 17 16 16 16 16
21 21 22 23 23 23 23 22 19 18 17 17 19 22 21 20 20 20 21 21 22 22 22 21 21 21 21 20 20 20 19 19 19 18 18 17 17 17 17 16 16 16 16 16
21 20 21 23 22 23 23 22 20 20 19 19 19 21 21 20 19 19 21 21 21 22 22 21 21 21 20 20 20 20 19 19 19 18 18 17 17 17 17 16 16 16 16 16
21 21 21 22 22 23 23 23 22 21 20 21 21 20 20 19 19 20 21 21 21 21 21 21 21 21 21 20 20 19 19 19 19 18 18 17 17 17 16 16 16 16 16 15
19 21 21 22 23 22 23 23 22 22 21 21 21 21 20 20 20 20 20 20 21 21 21 21 21 21 21 20 20 19 19 19 18 18 18 17 17 17 16 16 16 16 16 15
18 19 20 21 22 23 23 22 22 22 21 21 21 21 19 19 19 19 20 20 21 21 21 21 21 21 21 20 20 19 19 19 18 18 18 17 17 17 16 16 16 16 16 15
17 17 17 18 21 22 22 21 22 22 21 20 20 19 19 19 20 21 21 21 21 21 21 21 21 21 20 20 19 19 19 18 18 18 17 17 16 16 16 16 16 16 15 15
16 17 16 17 19 21 22 21 21 21 21 20 19 19 19 19 19 20 21 21 21 21 22 21 21 21 20 20 19 19 19 18 18 17 17 17 16 16 16 16 16 15 15 15
15 15 16 17 20 20 21 21 21 21 21 20 19 18 18 19 18 19 21 21 21 21 21 21 20 20 20 19 19 19 18 18 18 17 17 17 16 16 16 16 16 15 15 15
17 16 17 17 19 19 20 20 21 21 21 20 20 19 19 19 20 21 21 21 21 21 21 20 20 20 19 19 19 18 18 18 17 17 16 16 16 16 16 16 15 15 15 15
17 17 16 16 18 19 19 19 19 19 20 20 20 20 20 20 21 21 21 21 21 21 20 20 19 19 19 18 18 18 17 17 17 16 16 16 16 15 15 15 15 15 15 14
15 15 15 16 17 18 18 19 20 20 20 20 20 21 21 20 20 21 21 21 21 20 20 19 19 19 18 18 18 17 17 17 16 16 16 16 15 15 15 15 15 15 14 14
15 14 14 15 16 17 18 19 20 20 20 21 21 21 21 21 20 20 20 20 20 20 19 19 18 18 18 18 17 17 17 16 16 15 15 15 15 15 15 15 15 14 14 14
15 15 14 15 15 17 19 19 20 20 20 20 20 20 20 20 20 20 20 19 19 19 18 18 18 18 18 17 17 17 16 16 16 15 15 15 15 15 15 15 14 14 14 14
14 14 14 15 16 15 17 19 19 19 20 20 20 20 20 20 20 19 19 19 19 18 18 18 17 17 17 17 17 16 16 16 15 15 15 15 15 15 14 14 14 14 13 13
Wind_Speed
2 3 3 7 7 6 4 3 3 3 2 3 3 3 4 5 5 5 5 5 6 6 5 4 4 4 3 3 3 4 4 3 3 2 2 1 1 0 1 1 1 1 0 0
3 4 9 5 4 5 4 2 2 2 1 3 1 2 3 5 6 6 6 7 7 5 4 4 4 4 4 4 4 4 3 3 3 2 2 2 1 1 0 1 1 1 1 0
6 7 3 2 2 3 3 5 5 3 2 3 2 3 3 3 3 3 4 5 6 7 6 5 4 5 4 4 5 5 4 4 3 3 2 2 2 2 2 2 2 2 1 1
5 5 2 2 3 4 4 5 6 4 3 1 2 2 6 3 3 5 5 5 6 6 6 5 5 5 5 5 4 4 4 3 3 4 4 4 2 1 1 1 1 2 2 2
5 3 2 3 5 5 4 3 5 4 4 2 2 1 7 1 4 7 7 8 8 8 8 7 7 6 5 4 4 4 4 3 3 3 4 4 2 2 1 1 1 1 2 2
6 3 4 4 1 4 5 7 7 6 5 1 2 2 6 4 7 5 7 8 8 7 7 6 5 4 4 4 4 4 4 3 2 3 3 4 3 2 1 0 1 1 1 2
5 4 2 3 3 2 5 6 4 4 3 5 2 2 8 6 6 7 8 8 8 8 7 7 6 6 5 5 5 4 4 3 2 3 3 3 3 3 3 2 2 1 1 1
3 6 3 4 6 6 4 8 7 5 5 4 1 5 7 4 3 4 5 6 6 7 7 8 8 7 6 6 5 5 5 4 3 3 3 3 3 2 2 2 2 2 2 2
7 6 4 2 2 9 6 3 5 7 3 0 5 6 7 0 1 2 4 5 6 7 8 8 7 6 6 6 6 6 6 4 3 3 3 2 2 2 2 2 1 1 1 1
9 4 4 2 5 4 5 9 6 6 5 3 5 5 5 5 4 3 5 6 6 6 6 6 6 6 6 6 5 5 5 5 3 3 3 3 2 2 2 1 1 1 1 1
6 5 4 2 3 5 5 5 6 5 5 6 3 7 6 8 7 7 7 6 6 6 7 7 6 6 6 5 5 5 4 4 3 3 2 2 2 1 1 1 1 1 1 1
5 6 2 5 4 2 4 7 8 6 4 5 4 7 5 5 6 6 6 5 5 5 5 6 6 5 5 5 5 5 5 4 4 3 3 2 1 1 1 1 1 1 1 1
7 6 2 5 5 2 2 3 5 6 6 6 5 7 3 1 1 3 5 4 4 5 5 5 5 5 5 5 5 5 5 4 4 4 3 2 1 1 1 2 1 1 1 1
6 5 6 8 7 4 3 3 5 6 5 5 7 7 5 2 3 4 4 5 4 5 6 6 6 5 5 5 5 5 4 4 4 4 3 2 2 2 2 2 1 1 1 0
5 4 3 4 3 4 4 5 7 6 8 8 8 7 8 6 6 6 5 5 5 5 6 7 7 6 5 5 4 4 4 4 4 4 3 3 3 2 2 1 1 1 1 1
4 4 2 1 1 2 2 3 5 5 5 5 3 6 5 3 3 3 4 5 6 6 7 8 7 6 6 6 5 4 4 4 4 4 4 3 2 2 2 2 1 1 1 0
2 5 4 2 2 2 3 5 5 4 4 7 7 7 3 3 5 7 7 7 8 7 7 7 7 7 6 6 5 5 4 4 4 4 3 3 3 2 2 2 1 1 2 1
5 5 4 2 2 5 7 2 3 4 2 3 4 4 5 6 4 3 5 7 7 6 6 6 6 6 6 5 5 4 4 4 4 4 3 3 3 3 2 1 2 2 1 1
5 7 5 4 4 5 5 2 4 4 3 3 4 4 3 3 3 1 2 4 6 6 6 5 6 6 6 6 5 5 4 4 4 4 4 4 3 3 2 2 2 2 1 1
5 5 6 5 4 6 6 3 2 4 3 4 5 6 5 5 2 4 3 3 3 3 3 4 4 5 5 5 6 6 5 4 4 4 4 4 3 3 3 3 2 1 2 2
3 4 4 4 4 6 5 4 3 4 6 4 6 6 7 6 5 3 3 3 3 3 3 4 5 5 5 5 6 6 4 4 3 2 2 2 2 3 3 2 1 1 1 1
4 3 3 4 3 5 3 3 4 6 3 2 4 5 5 4 2 2 4 3 3 3 3 4 5 4 3 5 6 5 4 3 2 2 2 2 1 2 2 2 1 1 1 1
3 5 5 6 5 4 2 3 3 1 1 1 3 3 5 4 3 3 3 3 2 3 3 4 4 4 3 4 5 5 3 3 3 2 2 2 1 1 1 2 1 1 1 1
2 1 2 2 4 4 3 3 3 1 1 1 2 4 5 4 4 4 3 2 1 2 2 3 5 4 3 3 4 4 3 3 4 3 2 2 2 1 1 1 2 2 2 2
3 1 1 2 5 4 4 3 3 2 2 3 3 3 5 6 4 4 3 3 3 2 2 3 4 4 4 3 3 3 4 4 4 3 2 1 2 2 2 1 2 3 3 4
4 5 5 5 5 4 5 4 1 1 1 2 2 3 3 5 5 4 3 2 3 3 2 2 3 3 2 3 3 2 3 4 4 3 2 2 2 2 2 1 1 1 2 3
Wind_Direction
98 88 228 226 205 200 186 191 237 256 195 152 195 221 215 187 188 195 195 197 202 207 205 185 185 179 161 163 167 175 172 166 145 132 137 144 192 279 347 329 308 306 309 101
52 255 239 221 185 174 181 203 249 310 83 147 196 256 220 196 203 202 200 204 206 204 195 188 187 178 175 178 185 185 183 169 170 172 163 158 150 176 214 340 354 334 343 339
202 240 225 196 183 165 207 190 201 195 56 58 81 324 262 223 196 202 207 204 200 201 198 194 189 187 181 189 193 194 187 179 177 161 119 95 70 38 24 7 352 339 331 332
238 250 215 212 215 171 242 210 168 148 107 345 99 275 280 236 232 222 217 210 206 202 193 190 190 190 193 201 189 177 175 176 175 156 149 149 151 172 244 264 317 338 351 349
245 230 220 247 236 179 199 114 115 108 109 63 26 165 287 259 240 237 223 214 209 199 192 195 197 196 196 188 176 170 161 168 169 165 167 161 164 190 230 316 345 339 342 340
244 246 214 212 238 140 128 75 61 54 67 344 247 180 278 238 222 226 217 212 206 196 190 195 194 182 183 172 165 160 157 169 158 156 160 164 168 175 169 274 312 319 330 338
306 300 247 151 91 58 103 97 46 7 5 256 252 206 253 252 225 210 209 207 199 190 184 189 192 186 186 178 173 167 163 172 162 154 159 171 178 185 198 217 241 268 302 308
214 284 249 182 176 177 170 143 158 191 219 267 293 239 256 259 243 207 196 190 181 183 186 191 199 192 188 185 178 172 174 182 172 169 181 181 184 191 207 209 212 232 250 260
184 248 284 227 170 140 141 159 157 131 132 261 280 282 300 233 96 154 165 168 184 187 189 192 196 188 184 184 185 179 176 179 178 181 180 175 189 197 201 198 198 225 250 275
164 219 286 282 90 52 134 141 106 118 146 235 289 279 254 253 219 199 188 189 194 186 184 188 188 184 184 184 177 168 172 179 177 167 172 180 183 185 185 171 206 238 263 299
150 169 297 23 163 173 119 105 110 115 147 157 238 270 232 219 207 197 204 200 189 191 190 183 181 177 173 162 157 162 165 160 158 164 175 164 165 174 162 175 226 239 245 252
149 133 230 268 273 207 158 162 150 151 193 170 178 263 282 216 204 184 194 197 187 188 179 169 166 160 158 158 159 166 165 164 172 169 165 169 165 150 156 217 249 234 236 249
139 122 100 338 339 7 115 141 140 125 122 152 172 259 326 50 186 184 188 190 177 169 161 154 154 164 168 169 170 171 169 174 174 161 159 161 172 182 209 234 248 235 226 241
121 116 161 195 219 206 194 168 151 134 149 187 215 242 287 275 232 210 189 176 169 166 165 163 168 175 177 179 178 174 176 177 169 155 161 181 210 217 224 228 232 228 206 183
111 136 182 215 221 183 197 196 182 184 184 186 220 220 243 229 217 209 190 165 155 165 173 176 178 178 174 177 181 180 179 174 166 160 178 209 216 205 200 207 225 228 197 208
82 132 130 304 320 185 228 223 187 194 180 194 203 243 242 208 168 177 188 175 179 187 189 189 183 179 180 182 185 180 181 175 161 168 189 200 192 190 202 212 204 206 244 223
99 125 124 230 303 56 265 231 190 193 197 176 200 225 176 180 192 194 191 187 193 196 195 191 190 189 187 183 179 181 181 162 159 169 182 188 186 197 218 225 216 230 235 213
140 119 127 144 107 216 243 269 176 167 203 198 202 210 194 203 206 203 193 186 193 196 193 194 189 182 178 170 165 158 152 156 161 170 185 194 189 208 220 206 219 239 237 232
152 138 126 135 187 259 291 244 167 167 241 212 193 196 172 130 79 343 217 186 190 195 196 195 188 173 160 160 161 146 151 161 167 188 202 205 197 203 207 215 230 228 217 248
72 101 121 137 167 221 246 281 187 119 267 231 181 180 161 123 131 250 222 180 185 184 180 175 161 148 153 162 151 146 159 171 196 215 217 206 197 199 207 218 225 223 211 232
59 67 124 155 197 252 274 298 120 154 239 229 183 181 171 179 200 213 169 166 169 161 160 156 151 159 170 156 145 150 161 195 212 212 217 198 198 206 204 204 204 200 205 202
161 143 164 148 178 252 314 99 164 223 272 203 184 180 176 182 159 141 155 162 153 140 130 144 153 162 153 146 147 155 183 198 149 150 174 185 193 212 190 165 184 173 159 168
180 183 184 186 204 243 272 232 267 223 214 216 179 180 161 156 163 155 161 160 159 142 144 148 153 147 138 151 157 166 187 146 136 150 184 194 183 191 169 170 190 196 171 195
283 129 134 262 273 280 286 310 336 339 226 216 156 153 147 153 157 154 154 150 136 120 145 143 144 149 163 170 167 167 160 148 150 174 201 193 188 202 186 186 193 200 208 218
244 152 127 269 284 318 320 322 329 1 33 63 93 127 149 148 157 166 164 168 163 144 148 149 158 171 185 178 175 162 154 151 163 186 199 195 188 188 192 208 219 219 224 215
216 186 180 224 233 211 259 289 304 66 47 76 96 96 127 152 160 156 167 177 159 150 147 148 155 167 182 172 172 171 168 161 166 186 198 204 203 197 199 211 285 280 242 250
Height
1495 1501 1506 1502 1499 1500 1504 1508 1512 1507 1501 1505 1508 1509 1507 1507 1509 1509 1510 1511 1512 1513 1515 1516 1517 1519 1520 1520 1521 1522 1522 1523 1524 1524 1525 1525 1525 1525 1525 1525 1524 1524 1523 1522
1500 1503 1494 1492 1494 1498 1502 1509 1510 1505 1501 1505 1509 1509 1506 1506 1507 1508 1509 1509 1511 1512 1513 1515 1516 1517 1518 1519 1520 1521 1522 1523 1523 1524 1524 1525 1525 1525 1525 1525 1524 1524 1523 1522
1499 1494 1489 1491 1495 1499 1502 1507 1507 1508 1505 1505 1510 1514 1508 1505 1506 1507 1508 1508 1509 1510 1512 1513 1515 1516 1517 1518 1519 1520 1521 1522 1522 1523 1523 1524 1524 1524 1524 1524 1524 1524 1523 1523
1494 1488 1488 1491 1494 1495 1504 1496 1498 1504 1513 1520 1516 1529 1512 1506 1506 1505 1505 1506 1507 1509 1510 1512 1513 1514 1516 1517 1518 1519 1520 1521 1521 1522 1522 1523 1523 1523 1523 1523 1523 1523 1523 1522
1492 1487 1488 1491 1490 1490 1496 1493 1498 1505 1515 1522 1520 1527 1519 1508 1507 1504 1502 1503 1505 1506 1508 1510 1512 1513 1515 1516 1517 1518 1519 1520 1521 1521 1521 1522 1522 1523 1523 1523 1522 1522 1522 1522
1486 1483 1483 1484 1484 1486 1491 1498 1505 1513 1521 1533 1524 1528 1523 1510 1503 1499 1499 1500 1502 1504 1506 1509 1510 1512 1514 1515 1516 1517 1518 1519 1520 1520 1521 1521 1521 1522 1522 1522 1522 1521 1521 1521
1491 1485 1481 1481 1488 1490 1493 1511 1530 1533 1541 1537 1523 1525 1519 1499 1494 1494 1495 1496 1498 1501 1504 1506 1508 1510 1512 1514 1515 1516 1517 1518 1519 1520 1520 1520 1521 1521 1521 1521 1521 1521 1520 1520
1501 1500 1483 1480 1485 1492 1496 1505 1528 1539 1542 1535 1523 1525 1507 1493 1491 1491 1492 1494 1496 1499 1502 1504 1506 1508 1510 1512 1514 1515 1516 1517 1518 1519 1519 1520 1520 1520 1520 1520 1520 1520 1520 1519
1500 1498 1480 1477 1478 1484 1496 1504 1505 1523 1530 1535 1528 1516 1501 1491 1491 1491 1492 1493 1495 1497 1500 1502 1505 1507 1509 1511 1512 1513 1515 1516 1517 1518 1518 1519 1519 1519 1519 1519 1519 1519 1519 1518
1486 1494 1482 1478 1478 1483 1487 1497 1511 1523 1537 1539 1527 1520 1512 1496 1493 1491 1492 1492 1493 1496 1499 1501 1503 1505 1507 1509 1511 1512 1514 1515 1516 1517 1517 1517 1518 1518 1518 1518 1518 1518 1518 1517
1479 1492 1489 1483 1485 1488 1492 1499 1509 1521 1523 1536 1537 1522 1492 1490 1488 1489 1490 1490 1492 1494 1497 1499 1501 1504 1506 1508 1510 1511 1512 1513 1515 1515 1516 1517 1517 1517 1517 1517 1517 1517 1517 1516
1478 1490 1499 1490 1481 1479 1482 1491 1502 1514 1522 1526 1529 1518 1484 1484 1484 1486 1488 1489 1491 1493 1495 1498 1500 1502 1505 1506 1508 1510 1511 1512 1513 1514 1515 1515 1516 1516 1516 1516 1516 1516 1516 1515
1477 1490 1505 1502 1496 1486 1485 1489 1495 1503 1516 1526 1526 1511 1484 1483 1484 1485 1487 1488 1490 1492 1494 1497 1499 1501 1503 1505 1507 1508 1509 1511 1512 1512 1513 1514 1514 1514 1514 1514 1514 1514 1514 1514
1470 1487 1497 1504 1498 1488 1487 1488 1492 1499 1512 1518 1512 1501 1488 1486 1485 1484 1485 1487 1489 1491 1493 1495 1497 1500 1502 1504 1506 1507 1508 1509 1510 1511 1512 1512 1513 1513 1513 1513 1513 1512 1512 1512
1470 1485 1485 1485 1481 1481 1482 1483 1487 1490 1494 1501 1497 1495 1487 1484 1483 1483 1484 1486 1488 1490 1491 1494 1496 1498 1500 1502 1504 1505 1506 1508 1509 1509 1510 1511 1511 1512 1512 1511 1511 1511 1511 1510
1473 1482 1483 1484 1480 1480 1482 1480 1482 1484 1486 1488 1488 1488 1480 1480 1482 1483 1484 1485 1487 1488 1489 1491 1494 1496 1498 1500 1502 1503 1505 1506 1507 1508 1509 1509 1510 1510 1510 1510 1509 1509 1509 1509
1478 1482 1490 1493 1484 1481 1489 1480 1479 1480 1479 1482 1486 1482 1478 1480 1480 1480 1481 1483 1484 1486 1488 1490 1492 1494 1495 1498 1500 1502 1503 1505 1506 1506 1507 1507 1508 1508 1508 1508 1508 1508 1508 1508
1478 1484 1493 1497 1491 1500 1485 1472 1472 1475 1476 1476 1476 1476 1476 1476 1477 1478 1480 1481 1483 1485 1486 1488 1490 1492 1494 1496 1498 1500 1502 1503 1504 1505 1505 1506 1506 1506 1506 1506 1506 1506 1506 1506
1472 1481 1494 1501 1500 1492 1479 1472 1472 1476 1478 1473 1474 1474 1475 1476 1477 1479 1479 1480 1481 1483 1485 1487 1489 1490 1493 1495 1497 1498 1500 1501 1502 1503 1503 1504 1504 1504 1504 1504 1504 1504 1504 1503
1474 1477 1489 1498 1498 1499 1481 1469 1468 1473 1480 1471 1471 1473 1474 1476 1482 1479 1478 1479 1481 1483 1484 1486 1487 1489 1491 1493 1495 1496 1498 1499 1500 1501 1501 1502 1502 1502 1502 1502 1502 1502 1502 1501
1481 1485 1490 1494 1494 1488 1473 1468 1468 1484 1480 1468 1469 1470 1472 1473 1475 1476 1476 1478 1480 1481 1483 1485 1486 1488 1489 1491 1493 1494 1496 1497 1498 1500 1501 1501 1500 1501 1501 1500 1500 1500 1500 1500
1483 1487 1490 1494 1494 1489 1471 1469 1474 1473 1467 1466 1467 1468 1470 1471 1473 1474 1476 1477 1479 1480 1482 1483 1485 1486 1488 1490 1491 1492 1494 1496 1497 1498 1499 1498 1499 1499 1499 1498 1498 1498 1498 1498
1480 1481 1482 1483 1483 1473 1470 1469 1469 1468 1467 1466 1466 1468 1469 1471 1472 1474 1475 1477 1478 1479 1481 1483 1484 1485 1486 1488 1489 1490 1492 1494 1495 1495 1496 1497 1497 1497 1497 1496 1496 1496 1496 1495
1477 1476 1478 1478 1473 1470 1469 1468 1467 1467 1466 1466 1466 1467 1469 1470 1472 1473 1474 1476 1477 1479 1480 1482 1483 1484 1485 1486 1487 1489 1490 1492 1493 1494 1494 1494 1494 1495 1494 1494 1494 1494 1493 1493
1475 1475 1477 1476 1472 1469 1467 1467 1467 1466 1466 1466 1466 1467 1468 1470 1472 1473 1474 1476 1477 1478 1480 1481 1482 1483 1484 1485 1486 1487 1488 1490 1491 1491 1492 1492 1492 1492 1491 1491 1491 1491 1491 1491
1472 1473 1475 1475 1469 1469 1467 1466 1467 1466 1466 1466 1467 1467 1469 1470 1472 1473 1474 1475 1476 1477 1479 1480 1481 1482 1483 1485 1485 1486 1487 1488 1489 1489 1489 1489 1489 1489 1489 1488 1488 1488 1488 1488